KB3HHA-13 Weather Reports


time (UTC)temp
C
wind
direction
speed
KPH
gust
KPH
rain 1hr
cm
rain 24hr
cm
rain mn
cm
humidity
%
barometer
mb
20260506135200 16 67 1.6 6.4 0.18 0.41 0.41 93 1009.3
20260506134702 16 90 0.0 6.4 0.15 0.38 0.38 93 1009.3
20260506134200 16 90 0.0 4.8 0.15 0.38 0.38 93 1009.5
20260506133701 16 90 1.6 4.8 0.13 0.36 0.36 93 1009.6
20260506133202 16 112 1.6 6.4 0.10 0.33 0.33 93 1009.6
20260506132702 16 90 3.2 6.4 0.10 0.33 0.33 93 1009.5
20260506132200 16 202 0.0 8.0 0.08 0.30 0.30 93 1009.6
20260506131701 16 112 3.2 8.0 0.05 0.28 0.28 93 1009.8
20260506131202 16 90 0.0 6.4 0.03 0.25 0.25 93 1010.0
20260506130701 16 90 0.0 4.8 0.03 0.25 0.25 93 1010.1
20260506130200 16 90 0.0 4.8 0.00 0.23 0.23 92 1009.9
20260506125700 16 45 0.0 3.2 0.15 0.23 0.23 92 1009.8
20260506125202 16 225 0.0 4.8 0.13 0.20 0.20 92 1009.7
20260506124701 16 225 0.0 4.8 0.13 0.20 0.20 92 1009.5
20260506124200 16 90 0.0 4.8 0.13 0.20 0.20 91 1009.4
20260506123701 16 90 1.6 4.8 0.10 0.18 0.18 91 1009.4
20260506123200 16 90 0.0 1.6 0.10 0.18 0.18 91 1009.3
20260506122702 16 90 0.0 1.6 0.10 0.18 0.18 90 1009.4
20260506122201 16 90 0.0 1.6 0.08 0.15 0.15 89 1009.5
20260506121700 16 90 0.0 1.6 0.05 0.13 0.13 89 1009.5
20260506121202 16 67 0.0 1.6 0.03 0.10 0.10 88 1009.7
20260506120700 16 67 0.0 4.8 0.03 0.10 0.10 88 1009.8
20260506120200 16 90 1.6 4.8 0.00 0.08 0.08 87 1010.0
20260506115700 17 90 0.0 4.8 0.08 0.08 0.08 85 1010.1
20260506115202 17 67 0.0 4.8 0.05 0.05 0.05 84 1009.9
20260506114700 17 67 0.0 12.9 0.05 0.05 0.05 83 1009.9
20260506114200 17 90 1.6 12.9 0.03 0.03 0.03 81 1009.8
20260506113702 18 90 0.0 11.3 0.03 0.03 0.03 79 1009.9
20260506113200 18 90 0.0 14.5 0.00 0.00 0.00 78 1009.9
20260506112702 18 90 1.6 14.5 0.00 0.00 0.00 77 1009.8
20260506112201 18 90 1.6 8.0 0.00 0.00 0.00 76 1009.6
20260506111700 18 90 1.6 6.4 0.00 0.00 0.00 75 1009.5
20260506111201 18 90 1.6 9.7 0.00 0.00 0.00 74 1009.4
20260506110701 18 112 3.2 12.9 0.00 0.00 0.00 74 1009.4
20260506110200 18 90 4.8 12.9 0.00 0.00 0.00 73 1009.2
20260506105700 18 90 3.2 9.7 0.00 0.00 0.00 73 1009.2
20260506105200 18 90 1.6 9.7 0.00 0.00 0.00 72 1009.1
20260506104701 18 90 4.8 9.7 0.00 0.00 0.00 71 1009.1
20260506104200 18 112 3.2 11.3 0.00 0.00 0.00 71 1009.0
20260506103701 18 67 3.2 12.9 0.00 0.00 0.00 71 1008.9
20260506103201 18 90 3.2 12.9 0.00 0.00 0.00 71 1008.9
20260506102700 18 67 3.2 9.7 0.00 0.00 0.00 71 1008.8
20260506102201 19 90 3.2 9.7 0.00 0.00 0.00 70 1008.9
20260506101700 19 90 1.6 4.8 0.00 0.00 0.00 70 1008.7
20260506101201 19 67 1.6 6.4 0.00 0.00 0.00 70 1008.8
20260506100702 19 112 0.0 16.1 0.00 0.00 0.00 69 1008.8
20260506100201 19 112 3.2 16.1 0.00 0.00 0.00 68 1008.8
20260506095701 19 112 3.2 11.3 0.00 0.00 0.00 68 1008.9
20260506095201 19 112 3.2 16.1 0.00 0.00 0.00 68 1008.8
20260506094702 19 90 6.4 16.1 0.00 0.00 0.00 68 1008.7
20260506094201 19 90 3.2 16.1 0.00 0.00 0.00 68 1008.8
20260506093701 19 112 3.2 16.1 0.00 0.00 0.00 67 1008.8
20260506093201 20 112 3.2 11.3 0.00 0.00 0.00 67 1008.9
20260506092701 20 90 1.6 12.9 0.00 0.00 0.00 67 1008.9
20260506092200 20 90 3.2 12.9 0.00 0.00 0.00 67 1008.9
20260506091703 20 90 3.2 16.1 0.00 0.00 0.00 66 1009.0
20260506091201 20 112 6.4 16.1 0.00 0.00 0.00 66 1009.0
20260506090701 20 90 3.2 14.5 0.00 0.00 0.00 66 1008.8
20260506090200 20 157 4.8 14.5 0.00 0.00 0.00 65 1008.8
20260506085700 20 112 4.8 14.5 0.00 0.00 0.00 65 1008.8
20260506085201 20 90 4.8 14.5 0.00 0.00 0.00 65 1008.9
20260506084700 20 112 4.8 11.3 0.00 0.00 0.00 65 1008.9
20260506084200 20 112 3.2 14.5 0.00 0.00 0.00 64 1009.0
20260506083702 20 90 1.6 17.7 0.00 0.00 0.00 64 1009.1
20260506083202 20 90 4.8 17.7 0.00 0.00 0.00 64 1009.2
20260506082700 20 67 4.8 9.7 0.00 0.00 0.00 63 1009.2
20260506082200 20 90 1.6 17.7 0.00 0.00 0.00 63 1009.1
20260506081701 20 112 4.8 17.7 0.00 0.00 0.00 62 1009.0
20260506081203 20 135 6.4 17.7 0.00 0.00 0.00 62 1009.1
20260506080701 20 135 3.2 17.7 0.00 0.00 0.00 62 1009.0
20260506080201 20 112 6.4 14.5 0.00 0.00 0.00 62 1009.1
20260506073201 20 67 4.8 16.1 0.00 0.00 0.00 61 1008.8
20260506072700 21 90 4.8 12.9 0.00 0.00 0.00 60 1008.9
20260506072200 21 112 4.8 14.5 0.00 0.00 0.00 60 1008.9
20260506071700 21 135 4.8 14.5 0.00 0.00 0.00 60 1009.0
20260506071201 21 90 4.8 12.9 0.00 0.00 0.00 59 1009.0
20260506070702 21 135 4.8 12.9 0.00 0.00 0.00 59 1009.1
20260506070202 21 90 3.2 9.7 0.00 0.00 0.00 59 1009.1
20260506062201 21 112 1.6 9.7 0.00 0.00 0.00 56 1009.6
20260506061700 21 112 4.8 17.7 0.00 0.00 0.00 56 1009.5
20260506061200 21 90 4.8 17.7 0.00 0.00 0.00 56 1009.6
20260506060701 21 90 1.6 11.3 0.00 0.00 0.00 56 1009.6
20260506060201 21 90 3.2 9.7 0.00 0.00 0.00 56 1009.5
20260506051200 22 112 4.8 12.9 0.00 0.00 0.00 54 1010.0
20260506050700 22 67 3.2 12.9 0.00 0.00 0.00 53 1010.0
20260506050202 22 67 1.6 6.4 0.00 0.00 0.00 53 1010.0
20260506044700 22 90 1.6 11.3 0.00 0.00 0.00 52 1010.1
20260506044201 22 90 4.8 11.3 0.00 0.00 0.00 52 1010.3
20260506043700 22 112 1.6 9.7 0.00 0.00 0.00 51 1010.2
20260506043200 22 67 4.8 9.7 0.00 0.00 0.00 51 1010.0
20260506042700 22 90 1.6 12.9 0.00 0.00 0.00 51 1010.1
20260506042202 22 112 3.2 12.9 0.00 0.00 0.00 50 1010.2
20260506041701 22 90 4.8 11.3 0.00 0.00 0.00 50 1010.2
20260506041202 22 112 1.6 11.3 0.00 0.00 0.00 50 1010.1
20260506040701 22 67 3.2 11.3 0.00 0.00 0.00 50 1010.0
20260506040200 22 112 3.2 11.3 0.00 0.00 0.00 50 1010.0
20260506035700 22 112 1.6 11.3 0.00 0.00 0.00 49 1010.1
20260506035201 22 90 3.2 12.9 0.00 0.00 0.00 49 1010.0
20260506034701 22 67 1.6 12.9 0.00 0.00 0.00 49 1010.0
20260506034201 22 67 1.6 8.0 0.00 0.00 0.00 49 1009.9
20260506033701 22 90 1.6 16.1 0.00 0.00 0.00 48 1009.9
20260506033202 22 135 3.2 16.1 0.00 0.00 0.00 48 1009.8
20260506032701 22 90 3.2 14.5 0.00 0.00 0.00 48 1009.8
20260506032201 22 90 1.6 14.5 0.00 0.00 0.00 47 1009.9
20260506031703 22 90 1.6 9.7 0.00 0.00 0.00 47 1009.9
20260506031200 22 67 3.2 9.7 0.00 0.00 0.00 46 1010.0
20260506030701 22 112 1.6 11.3 0.00 0.00 0.00 46 1009.9
20260506030201 22 112 4.8 11.3 0.00 0.00 0.00 45 1009.9
20260506025701 22 112 3.2 11.3 0.00 0.00 0.00 45 1009.9
20260506025202 22 90 3.2 11.3 0.00 0.00 0.00 44 1010.0
20260506024700 22 90 4.8 11.3 0.00 0.00 0.00 44 1010.0
20260506024201 22 67 3.2 8.0 0.00 0.00 0.00 43 1009.9
20260506023702 22 67 1.6 8.0 0.00 0.00 0.00 42 1009.9
20260506023201 23 67 0.0 9.7 0.00 0.00 0.00 42 1009.9
20260506022700 23 112 1.6 9.7 0.00 0.00 0.00 42 1010.0
20260506022200 23 90 3.2 9.7 0.00 0.00 0.00 41 1010.0
20260506021702 23 112 3.2 4.8 0.00 0.00 0.00 41 1010.1
20260506021203 24 112 4.8 17.7 0.00 0.00 0.00 34 1009.0
20260506020701 24 112 4.8 17.7 0.00 0.00 0.00 34 1009.0
20260506015701 24 112 4.8 17.7 0.00 0.00 0.00 34 1009.0
20260506015200 24 112 4.8 17.7 0.00 0.00 0.00 34 1009.0
20260506014703 24 112 4.8 17.7 0.00 0.00 0.00 34 1009.0
20260506014200 24 112 4.8 17.7 0.00 0.00 0.00 34 1009.0
20260506013703 24 112 4.8 17.7 0.00 0.00 0.00 34 1009.0
20260506013202 24 112 4.8 17.7 0.00 0.00 0.00 34 1009.0
20260506012702 24 112 4.8 17.7 0.00 0.00 0.00 34 1009.0
20260506012202 24 112 4.8 17.7 0.00 0.00 0.00 34 1009.0
20260506011701 24 112 4.8 17.7 0.00 0.00 0.00 34 1009.0
20260506011202 24 112 4.8 17.7 0.00 0.00 0.00 34 1009.0
20260506010703 24 112 4.8 17.7 0.00 0.00 0.00 34 1009.0
20260506010200 24 112 4.8 17.7 0.00 0.00 0.00 34 1009.0
20260506005702 24 112 4.8 17.7 0.00 0.00 0.00 34 1009.0
20260506005202 24 112 4.8 17.7 0.00 0.00 0.00 34 1009.0
20260506004701 24 112 4.8 17.7 0.00 0.00 0.00 34 1009.0
20260506004201 24 112 4.8 17.7 0.00 0.00 0.00 34 1009.0
20260506003700 24 112 4.8 17.7 0.00 0.00 0.00 34 1009.0
20260506003201 24 112 4.8 17.7 0.00 0.00 0.00 34 1009.0
20260506002700 24 112 4.8 17.7 0.00 0.00 0.00 34 1009.0
20260506002201 24 112 4.8 17.7 0.00 0.00 0.00 34 1009.0
20260506001701 24 112 4.8 17.7 0.00 0.00 0.00 34 1009.0
20260506001201 24 112 4.8 17.7 0.00 0.00 0.00 34 1009.0
20260506000700 24 112 4.8 17.7 0.00 0.00 0.00 34 1009.0
20260506000200 24 112 4.8 17.7 0.00 0.00 0.00 34 1009.0
20260505235700 24 112 4.8 17.7 0.00 0.00 0.00 34 1009.0
20260505235201 24 112 4.8 17.7 0.00 0.00 0.00 34 1009.0
20260505234700 24 112 4.8 17.7 0.00 0.00 0.00 34 1009.0
20260505234203 24 112 4.8 17.7 0.00 0.00 0.00 34 1009.0
20260505233701 24 112 4.8 17.7 0.00 0.00 0.00 34 1009.0
20260505233202 24 112 4.8 17.7 0.00 0.00 0.00 34 1009.0
20260505232701 24 112 4.8 17.7 0.00 0.00 0.00 34 1009.0
20260505232200 24 112 4.8 17.7 0.00 0.00 0.00 34 1009.0
20260505231702 24 112 4.8 17.7 0.00 0.00 0.00 34 1009.0
20260505231200 24 112 4.8 17.7 0.00 0.00 0.00 34 1009.0
20260505230700 24 112 4.8 17.7 0.00 0.00 0.00 34 1009.0
20260505230200 24 112 4.8 17.7 0.00 0.00 0.00 34 1009.0
20260505225701 24 112 4.8 17.7 0.00 0.00 0.00 34 1009.0
20260505225200 24 112 4.8 17.7 0.00 0.00 0.00 34 1009.0
20260505224700 24 112 4.8 17.7 0.00 0.00 0.00 34 1009.0
20260505224201 24 112 4.8 17.7 0.00 0.00 0.00 34 1009.0
20260505223703 24 112 4.8 17.7 0.00 0.00 0.00 34 1009.0
20260505223201 24 112 4.8 17.7 0.00 0.00 0.00 34 1009.0
20260505222700 24 112 4.8 17.7 0.00 0.00 0.00 34 1009.0
20260505222202 24 112 4.8 17.7 0.00 0.00 0.00 34 1009.0
20260505221700 24 112 4.8 17.7 0.00 0.00 0.00 34 1009.0
20260505221204 24 112 4.8 17.7 0.00 0.00 0.00 34 1009.0
20260505220700 24 112 4.8 17.7 0.00 0.00 0.00 34 1009.0
20260505220201 24 112 4.8 17.7 0.00 0.00 0.00 34 1009.0
20260505215701 24 112 4.8 17.7 0.00 0.00 0.00 34 1009.0
20260505215201 24 112 4.8 17.7 0.00 0.00 0.00 34 1009.0
20260505214701 24 112 4.8 17.7 0.00 0.00 0.00 34 1009.0
20260505214200 24 112 4.8 17.7 0.00 0.00 0.00 34 1009.0
20260505213702 24 112 4.8 17.7 0.00 0.00 0.00 34 1009.0
20260505213200 24 112 4.8 17.7 0.00 0.00 0.00 34 1009.0
20260505212700 24 112 4.8 17.7 0.00 0.00 0.00 34 1009.0
20260505212202 24 112 4.8 17.7 0.00 0.00 0.00 34 1009.0
20260505211701 24 112 4.8 17.7 0.00 0.00 0.00 34 1009.0
20260505211200 24 112 4.8 17.7 0.00 0.00 0.00 34 1009.0
20260505210701 24 112 4.8 17.7 0.00 0.00 0.00 34 1009.0
20260505210200 24 112 4.8 17.7 0.00 0.00 0.00 34 1009.0
20260505205700 24 112 4.8 17.7 0.00 0.00 0.00 34 1009.0
20260505205201 24 112 4.8 17.7 0.00 0.00 0.00 34 1009.0
20260505204701 24 112 4.8 17.7 0.00 0.00 0.00 34 1009.0
20260505204200 24 112 4.8 17.7 0.00 0.00 0.00 34 1009.0
20260505203700 24 112 4.8 17.7 0.00 0.00 0.00 34 1009.0
20260505203202 24 112 4.8 17.7 0.00 0.00 0.00 34 1009.0
20260505202700 24 112 4.8 17.7 0.00 0.00 0.00 34 1009.0
20260505202202 24 112 4.8 17.7 0.00 0.00 0.00 34 1009.0
20260505201701 24 112 4.8 17.7 0.00 0.00 0.00 34 1009.0
20260505201202 24 112 4.8 17.7 0.00 0.00 0.00 34 1009.0
20260505200703 24 112 4.8 17.7 0.00 0.00 0.00 34 1009.0
20260505200200 24 112 4.8 17.7 0.00 0.00 0.00 34 1009.0
20260505195700 24 112 4.8 17.7 0.00 0.00 0.00 34 1009.0
20260505195200 24 112 4.8 17.7 0.00 0.00 0.00 34 1009.0
20260505194703 24 112 4.8 17.7 0.00 0.00 0.00 34 1009.0
20260505194200 24 112 4.8 17.7 0.00 0.00 0.00 34 1009.0
20260505193701 24 112 4.8 17.7 0.00 0.00 0.00 34 1009.0
20260505193200 24 112 4.8 17.7 0.00 0.00 0.00 34 1009.0
20260505192701 24 112 4.8 17.7 0.00 0.00 0.00 34 1009.0
20260505192201 24 112 4.8 17.7 0.00 0.00 0.00 34 1009.0
20260505191700 24 112 4.8 17.7 0.00 0.00 0.00 34 1009.0
20260505191201 24 112 4.8 17.7 0.00 0.00 0.00 34 1009.0
20260505190700 24 112 4.8 17.7 0.00 0.00 0.00 34 1009.0
20260505190202 24 112 4.8 17.7 0.00 0.00 0.00 34 1009.0
20260505185701 24 112 4.8 17.7 0.00 0.00 0.00 34 1009.0
20260505185200 24 112 4.8 17.7 0.00 0.00 0.00 34 1009.0
20260505184702 24 112 4.8 17.7 0.00 0.00 0.00 34 1009.0
20260505184201 24 112 4.8 17.7 0.00 0.00 0.00 34 1009.0
20260505183702 24 112 4.8 17.7 0.00 0.00 0.00 34 1009.0
20260505183201 24 112 4.8 17.7 0.00 0.00 0.00 34 1009.0
20260505182700 24 112 4.8 17.7 0.00 0.00 0.00 34 1009.0
20260505182200 24 112 4.8 17.7 0.00 0.00 0.00 34 1009.0
20260505181703 24 112 4.8 17.7 0.00 0.00 0.00 34 1009.0
20260505181201 24 112 4.8 17.7 0.00 0.00 0.00 34 1009.0
20260505180700 24 112 4.8 17.7 0.00 0.00 0.00 34 1009.0
20260505180200 24 112 4.8 17.7 0.00 0.00 0.00 34 1009.0
20260505175700 24 112 4.8 17.7 0.00 0.00 0.00 34 1009.0
20260505175202 24 112 4.8 17.7 0.00 0.00 0.00 34 1009.0
20260505174700 24 112 4.8 17.7 0.00 0.00 0.00 34 1009.0
20260505174202 24 112 4.8 17.7 0.00 0.00 0.00 34 1009.0
20260505173700 24 112 4.8 17.7 0.00 0.00 0.00 34 1009.0
20260505173201 24 112 4.8 17.7 0.00 0.00 0.00 34 1009.0
20260505172701 24 112 4.8 17.7 0.00 0.00 0.00 34 1009.0
20260505172201 24 112 4.8 17.7 0.00 0.00 0.00 34 1009.0
20260505171701 24 112 4.8 17.7 0.00 0.00 0.00 34 1009.0
20260505171200 24 112 4.8 17.7 0.00 0.00 0.00 34 1009.0
20260505170703 24 112 4.8 17.7 0.00 0.00 0.00 34 1009.0
20260505170201 24 112 4.8 17.7 0.00 0.00 0.00 34 1009.0
20260505165703 24 112 4.8 17.7 0.00 0.00 0.00 34 1009.0
20260505165201 24 112 4.8 17.7 0.00 0.00 0.00 34 1009.0
20260505164700 24 112 4.8 17.7 0.00 0.00 0.00 34 1009.0
20260505164201 24 112 4.8 17.7 0.00 0.00 0.00 34 1009.0
20260505163702 24 112 4.8 17.7 0.00 0.00 0.00 34 1009.0
20260505163200 24 112 4.8 17.7 0.00 0.00 0.00 34 1009.0
20260505162703 24 112 4.8 17.7 0.00 0.00 0.00 34 1009.0
20260505162201 24 112 4.8 17.7 0.00 0.00 0.00 34 1009.0
20260505161701 24 112 4.8 17.7 0.00 0.00 0.00 34 1009.0
20260505161200 24 112 4.8 17.7 0.00 0.00 0.00 34 1009.0
20260505160704 24 112 4.8 17.7 0.00 0.00 0.00 34 1009.0
20260505160200 24 112 4.8 17.7 0.00 0.00 0.00 34 1009.0
20260505153200 24 112 4.8 17.7 0.00 0.00 0.00 34 1009.0
20260505152700 24 112 4.8 17.7 0.00 0.00 0.00 34 1009.0
20260505152200 24 112 4.8 17.7 0.00 0.00 0.00 34 1009.0
20260505151703 24 112 4.8 17.7 0.00 0.00 0.00 34 1009.0
20260505151200 24 112 4.8 17.7 0.00 0.00 0.00 34 1009.0
20260505150700 24 112 4.8 17.7 0.00 0.00 0.00 34 1009.0
20260505150201 24 112 4.8 17.7 0.00 0.00 0.00 34 1009.0
20260505140203 24 112 4.8 17.7 0.00 0.00 0.00 34 1009.0